GSAT0218 (GALILEO 22)

Last updated on Thu Sep 03 2026 00:02:49 GMT+0000 (Coordinated Universal Time)

1 43058U 17079D 26244.41648307 .00000053 00000+0 00000+0 0 9991 2 43058 55.0557 219.4048 0005213 281.9340 77.9785 1.70473953 54310
UTC large
Height (km)
Speed (km/s)
/
Latitude / Longitude
Inclination (degrees)
Orbital Period (minutes)
Azimuth
Elevation
Range (km)
Doppler Factor

Next 0 passes for location: London (51.5072 / 0.1276)

No passes found over London.
GSAT0218 (GALILEO 22)